Total_Precipitation_Accumulation
0.62 0.60 0.61 0.59 0.55 0.56 0.66 0.77 1.20 1.56 2.01 2.37 2.28 2.42 2.68 2.67 2.50 2.36 2.40 2.40 2.33 2.35 2.26 2.23 2.19 2.02 1.88 1.75 1.64 1.57 1.55 1.51 1.59 1.69 1.68 1.61 1.54 1.49 1.44 1.36 1.26 1.26 1.24 1.18
0.60 0.53 0.57 0.63 0.67 0.62 0.64 0.81 1.18 1.57 2.09 2.19 2.19 2.29 2.42 2.56 2.48 2.37 2.37 2.43 2.48 2.59 2.54 2.49 2.44 2.24 2.07 1.92 1.70 1.57 1.55 1.52 1.55 1.61 1.60 1.54 1.50 1.45 1.40 1.35 1.33 1.30 1.25 1.19
0.76 0.55 0.81 1.18 1.02 0.89 0.88 0.99 1.29 1.71 1.93 1.87 1.99 2.25 2.38 2.45 2.54 2.52 2.60 2.72 2.76 2.71 2.69 2.61 2.54 2.53 2.45 2.19 1.93 1.81 1.69 1.58 1.56 1.53 1.48 1.44 1.32 1.30 1.37 1.38 1.35 1.27 1.22 1.20
0.94 1.03 1.62 1.52 1.02 0.95 1.10 1.27 1.36 1.48 1.53 1.71 1.94 2.14 2.29 2.47 2.66 2.69 2.67 2.61 2.68 2.63 2.64 2.58 2.49 2.45 2.41 2.31 2.10 1.84 1.72 1.57 1.47 1.47 1.44 1.44 1.40 1.36 1.40 1.42 1.35 1.33 1.29 1.26
1.15 1.52 1.65 1.54 1.10 1.09 1.32 1.71 1.53 1.56 1.55 1.67 1.78 2.00 2.40 2.44 2.52 2.71 2.56 2.46 2.53 2.62 2.65 2.63 2.52 2.33 2.21 2.16 2.07 1.95 1.74 1.52 1.39 1.39 1.36 1.36 1.37 1.37 1.39 1.39 1.33 1.28 1.26 1.28
1.40 1.79 2.02 1.81 1.06 0.90 1.37 2.42 1.82 1.69 1.71 1.70 1.81 2.36 2.51 2.22 2.14 2.24 2.31 2.41 2.52 2.63 2.70 2.68 2.61 2.28 2.12 2.00 1.87 1.72 1.52 1.38 1.32 1.32 1.27 1.24 1.29 1.34 1.36 1.37 1.32 1.27 1.25 1.29
1.55 2.03 2.13 1.33 0.85 0.98 1.98 2.49 1.91 1.78 1.74 1.78 2.01 2.20 1.99 1.83 1.91 2.08 2.25 2.38 2.47 2.50 2.52 2.47 2.45 2.21 2.08 1.88 1.71 1.44 1.25 1.22 1.25 1.23 1.17 1.12 1.17 1.22 1.29 1.27 1.28 1.28 1.20 1.18
1.75 2.21 2.36 1.18 0.98 1.41 1.77 1.48 1.41 1.43 1.41 1.46 1.57 1.64 1.69 1.73 1.81 1.90 2.05 2.22 2.31 2.35 2.32 2.21 2.11 2.03 1.92 1.74 1.47 1.27 1.15 1.12 1.19 1.23 1.04 0.93 1.04 1.05 1.09 1.25 1.22 1.20 1.22 1.12
1.99 2.35 1.96 1.29 1.25 1.24 1.26 1.26 1.21 1.27 1.24 1.26 1.34 1.40 1.54 1.73 1.82 1.83 1.80 1.97 2.03 1.93 1.83 1.83 1.78 1.74 1.67 1.50 1.29 1.17 1.15 1.19 1.19 1.17 1.10 1.05 1.07 1.04 1.07 1.17 1.18 1.10 1.10 1.04
1.76 1.86 1.54 1.24 1.14 1.12 1.02 1.00 1.04 1.17 1.17 1.12 1.11 1.08 1.21 1.37 1.53 1.63 1.61 1.61 1.68 1.65 1.59 1.55 1.49 1.42 1.35 1.22 1.19 1.18 1.18 1.21 1.25 1.21 1.10 1.06 1.12 1.03 1.02 1.02 1.06 1.03 0.99 0.99
1.85 1.81 1.58 1.37 1.18 1.06 1.02 0.99 1.04 1.10 1.03 0.94 0.90 0.89 0.94 1.10 1.21 1.30 1.37 1.33 1.35 1.45 1.47 1.36 1.26 1.21 1.15 1.06 1.06 1.19 1.24 1.19 1.18 1.09 1.07 1.10 1.04 0.91 0.85 0.81 0.85 0.92 0.92 0.90
2.04 1.74 1.65 1.49 1.15 0.96 0.98 0.98 0.94 0.92 0.85 0.83 0.80 0.78 0.82 1.00 1.12 1.17 1.18 1.19 1.26 1.32 1.29 1.24 1.17 1.09 1.03 0.96 0.98 1.11 1.19 1.16 1.08 1.01 0.99 0.96 0.99 0.92 0.83 0.77 0.76 0.74 0.78 0.74
1.39 1.21 1.17 1.10 1.00 0.98 0.89 0.83 0.84 0.80 0.72 0.71 0.72 0.68 0.78 0.93 0.95 1.00 1.05 1.08 1.20 1.22 1.17 1.09 1.05 1.07 1.06 1.00 0.94 0.99 1.04 1.01 0.99 0.96 0.94 0.89 0.90 0.95 0.94 0.77 0.69 0.67 0.70 0.68
1.02 1.06 1.12 0.98 0.86 0.81 0.74 0.68 0.68 0.67 0.66 0.67 0.68 0.64 0.68 0.73 0.78 0.87 0.95 1.00 1.04 1.00 1.04 1.08 1.00 0.95 0.96 0.94 0.88 0.84 0.88 0.85 0.83 0.87 0.88 0.85 0.81 0.79 0.81 0.80 0.78 0.70 0.65 0.66
0.88 0.87 0.93 0.81 0.67 0.67 0.68 0.62 0.66 0.71 0.68 0.68 0.65 0.59 0.58 0.66 0.73 0.79 0.79 0.83 0.87 0.86 0.85 0.91 0.98 0.92 0.85 0.83 0.82 0.78 0.79 0.79 0.73 0.73 0.78 0.78 0.76 0.76 0.73 0.74 0.74 0.71 0.64 0.61
0.79 0.72 0.67 0.65 0.59 0.59 0.65 0.68 0.70 0.72 0.72 0.71 0.68 0.64 0.62 0.68 0.75 0.78 0.74 0.75 0.80 0.76 0.71 0.75 0.83 0.81 0.74 0.70 0.70 0.72 0.71 0.74 0.70 0.64 0.65 0.71 0.71 0.70 0.68 0.68 0.68 0.67 0.63 0.57
0.83 0.81 0.74 0.70 0.66 0.65 0.68 0.70 0.67 0.64 0.66 0.72 0.70 0.63 0.60 0.66 0.76 0.77 0.78 0.71 0.65 0.62 0.58 0.59 0.68 0.71 0.72 0.66 0.61 0.57 0.61 0.66 0.70 0.64 0.59 0.59 0.59 0.59 0.57 0.60 0.65 0.67 0.62 0.60
0.72 0.70 0.69 0.73 0.71 0.70 0.69 0.65 0.62 0.61 0.61 0.66 0.68 0.67 0.66 0.72 0.75 0.70 0.68 0.60 0.57 0.57 0.52 0.47 0.55 0.64 0.70 0.70 0.62 0.55 0.55 0.58 0.61 0.61 0.59 0.56 0.54 0.55 0.57 0.55 0.54 0.60 0.63 0.68
0.59 0.59 0.63 0.69 0.71 0.75 0.73 0.66 0.61 0.56 0.55 0.60 0.65 0.71 0.74 0.73 0.71 0.65 0.62 0.62 0.64 0.68 0.59 0.51 0.57 0.61 0.63 0.63 0.67 0.66 0.64 0.63 0.62 0.64 0.63 0.59 0.56 0.58 0.61 0.59 0.56 0.56 0.57 0.63
0.58 0.59 0.61 0.65 0.61 0.61 0.62 0.58 0.56 0.52 0.55 0.60 0.60 0.60 0.69 0.69 0.66 0.65 0.65 0.66 0.62 0.60 0.55 0.51 0.52 0.58 0.61 0.61 0.68 0.66 0.69 0.67 0.65 0.68 0.72 0.67 0.63 0.62 0.60 0.60 0.61 0.63 0.63 0.66
0.60 0.62 0.60 0.59 0.55 0.49 0.49 0.51 0.52 0.53 0.57 0.61 0.55 0.52 0.58 0.62 0.59 0.64 0.68 0.65 0.56 0.53 0.57 0.57 0.51 0.51 0.56 0.62 0.71 0.69 0.70 0.71 0.70 0.67 0.68 0.70 0.65 0.69 0.68 0.64 0.63 0.64 0.67 0.68
0.68 0.68 0.60 0.60 0.59 0.53 0.50 0.52 0.50 0.48 0.49 0.52 0.51 0.53 0.56 0.60 0.59 0.63 0.67 0.61 0.49 0.47 0.48 0.52 0.50 0.51 0.53 0.58 0.61 0.64 0.64 0.67 0.68 0.65 0.63 0.66 0.68 0.70 0.68 0.66 0.66 0.64 0.63 0.63
0.75 0.73 0.64 0.67 0.65 0.62 0.60 0.51 0.44 0.45 0.50 0.52 0.52 0.53 0.56 0.59 0.60 0.63 0.63 0.53 0.46 0.46 0.44 0.45 0.49 0.49 0.47 0.45 0.50 0.57 0.57 0.59 0.62 0.63 0.60 0.62 0.65 0.66 0.62 0.62 0.65 0.66 0.61 0.61
0.79 0.80 0.71 0.68 0.62 0.68 0.67 0.55 0.48 0.53 0.60 0.56 0.53 0.53 0.52 0.53 0.55 0.53 0.53 0.56 0.54 0.50 0.43 0.44 0.47 0.45 0.45 0.40 0.43 0.51 0.56 0.56 0.54 0.54 0.55 0.55 0.58 0.62 0.60 0.58 0.62 0.62 0.58 0.55
0.82 0.83 0.77 0.75 0.76 0.76 0.72 0.65 0.62 0.59 0.60 0.57 0.54 0.53 0.52 0.55 0.59 0.57 0.52 0.48 0.51 0.47 0.40 0.43 0.46 0.46 0.41 0.40 0.44 0.46 0.47 0.53 0.55 0.51 0.49 0.50 0.51 0.53 0.55 0.56 0.57 0.57 0.57 0.57
0.87 0.89 0.84 0.81 0.80 0.77 0.74 0.73 0.75 0.72 0.68 0.66 0.61 0.58 0.54 0.52 0.54 0.57 0.51 0.47 0.46 0.44 0.40 0.42 0.44 0.46 0.40 0.38 0.43 0.43 0.41 0.45 0.49 0.51 0.50 0.52 0.54 0.53 0.53 0.53 0.53 0.53 0.53 0.56
0.86 0.87 0.85 0.76 0.70 0.70 0.78 0.82 0.82 0.81 0.77 0.76 0.73 0.68 0.60 0.57 0.55 0.57 0.55 0.53 0.50 0.45 0.43 0.44 0.45 0.44 0.41 0.41 0.43 0.45 0.41 0.40 0.42 0.44 0.46 0.49 0.52 0.54 0.55 0.55 0.53 0.51 0.49 0.52